sat.trackr.live / text

‹ back to catalog

STARLINK-37092

NORAD 68240 · 2026-054J

PAYLOAD ACTIVE UNKNOWN

§ Identity

Operator
Country
US
Launch date
2026-03-17
Launch site
AFETR
Launch vehicle
Mass (kg)
RCS (m²)

Purposes: comms

External: N2YO · Heavens-Above · Gunter

§ Orbital elements

Epoch: 2026-05-24T15:34:00.110496Z

Period
93.38 min
Inclination
53.1586°
Eccentricity
0.0001279
Mean motion
15.42161466 rev/d
Perigee alt
438.9 km
Apogee alt
440.6 km
Semi-major
6,817.9 km
B*
4.5673e-4
RAAN
301.7963°
Arg perigee
35.3054°
Mean anomaly
324.8036°
Rev number
1,065

§ Raw data

STARLINK-370921 68240U 26054J   26144.64861239  .00019515  00000+0  45673-3 0  99912 68240  53.1586 301.7963 0001279  35.3054 324.8036 15.42161466 10652

JSON: /api/v1/satellites/68240 · /tle

For live sub-satellite position, see the globe view (requires WebGL).

§ Visibility from observer

Set your observer location to see the next 7 days of passes ≥ 10°. The values pass through the URL so the page stays shareable.

No JS? Fill the form by hand. The geolocation button needs JavaScript.